Home > Weather > Goslar > Past weeks

Flag for Germany Past Weather in Goslar, Lower Saxony, Germany — Yesterday and Last 2 Weeks

Now
81 °F

Sunny.


Feels Like: 81 °F
Forecast: 63 / 89 °F
Wind: 1 mph from North

Location: Braunschweig Wolfsburg

Current Time: Aug 25, 2016 at 12:03:41 PM

Latest Report: Aug 25, 2016 at 11:20 AM


Visibility: 10 mi

Pressure: 30.15 "Hg

Humidity: 51%

Dew Point: 61 °F

Location of GoslarLocation

Past Weather in Goslar — Graph

°F

Goslar Temperature Yesterday

Maximum temperature yesterday: 88 °F (at 4:20 PM)
Minimum temperature yesterday: 59 °F (at 6:20 AM)
Average temperature yesterday: 78 °F

High & Low Weather Summary for the Past Weeks

 TemperatureHumidityPressure
High88 °F (Aug 24, 4:20 PM)100% (Aug 12, 7:50 AM)30.33 "Hg (Aug 12, 7:50 AM)
Low46 °F (Aug 11, 6:50 AM)31% (Aug 18, 3:50 PM)29.80 "Hg (Aug 18, 3:50 PM)
Average66 °F64%30.10 "Hg
* Reported Aug 10 10:20 AM — Aug 25 10:50 AM, Goslar, Weather by CustomWeather, © 2016

Note: Actual official high and low records may vary slightly from our data, if they occured in-between our weather recording intervals... More about our weather records

Advertising

Goslar Weather History for the Previous 24 Hours

Scroll right to see more
 ConditionsComfort  
Time TempWeatherWind HumidityBarometerVisibility
10:50 AM
Thu, Aug 25
79 °FSunny.2 mph54%30.15 "Hg10 mi
10:20 AM75 °FSunny.3 mph61%30.15 "Hg10 mi
9:50 AM75 °FPassing clouds.6 mph61%30.12 "HgN/A
9:20 AM70 °FSunny.6 mph69%30.15 "Hg10 mi
8:50 AM68 °FPassing clouds.5 mph73%30.15 "HgN/A
8:20 AM66 °FSunny.5 mph78%30.15 "Hg10 mi
7:50 AM64 °FSunny.5 mph88%30.15 "Hg10 mi
7:20 AM61 °FSunny.No wind88%30.15 "Hg10 mi
6:50 AM61 °FClear.No wind88%30.15 "Hg10 mi
9:50 PM
Wed, Aug 24
73 °FClear.9 mph61%30.18 "Hg10 mi
9:20 PM75 °FSunny.8 mph57%30.18 "Hg10 mi
8:50 PM77 °FSunny.8 mph54%30.18 "Hg10 mi
8:20 PM79 °FSunny.8 mph51%30.18 "Hg10 mi
7:50 PM81 °FSunny.7 mph48%30.18 "Hg10 mi
7:20 PM84 °FSunny.9 mph43%30.18 "Hg10 mi
6:50 PM86 °FSunny.12 mph40%30.18 "Hg10 mi
6:20 PM86 °FSunny.10 mph40%30.18 "Hg10 mi
5:50 PM88 °FSunny.10 mph38%30.18 "Hg10 mi
5:20 PM88 °FSunny.9 mph35%30.18 "Hg10 mi
4:50 PM88 °FPassing clouds.8 mph38%30.21 "HgN/A
4:20 PM88 °FPassing clouds.7 mph38%30.21 "HgN/A
3:50 PM86 °FPassing clouds.8 mph40%30.21 "HgN/A
3:20 PM86 °FPassing clouds.8 mph40%30.21 "HgN/A
2:50 PM86 °FPassing clouds.8 mph40%30.21 "HgN/A
2:20 PM84 °FPassing clouds.7 mph43%30.24 "HgN/A
1:50 PM84 °FPassing clouds.7 mph43%30.24 "HgN/A
1:20 PM82 °FPassing clouds.6 mph45%30.24 "HgN/A
12:50 PM82 °FPassing clouds.7 mph45%30.24 "HgN/A
12:20 PM81 °FPassing clouds.8 mph51%30.27 "HgN/A
Weather by CustomWeather, © 2016

See weather overviewHow to use our weather pages